Weather History for Fort Wayne, IN

Change the Weather History Date:

Friday, April 12, 2013

  Actual Average Record
Temperature  
Mean Temperature 41 °F 49 °F  
Max Temperature 43 °F 60 °F 86 °F (1930)
Min Temperature 38 °F 38 °F 16 °F (1940)
Degree Days  
Heating Degree Days 24 16  
Month to date heating degree days 229 222  
Since 1 July heating degree days 5602 5646  
Cooling Degree Days 0 0  
Month to date cooling degree days 0 0  
Year to date cooling degree days 0 0  
Moisture  
Dew Point 36 °F    
Average Humidity 82    
Maximum Humidity 93    
Minimum Humidity 70    
Precipitation  
Precipitation 0.08 in 0.12 in 1.36 in (1972)
Month to date precipitation 1.78 1.44  
Year to date precipitation 9.41 8.45  
Snow  
Snow 0.00 in 0.00 in 3.70 in (1973)
Month to date snowfall 0.0 0.6  
Since 1 July snowfall 38.5 33.1  
Snow Depth 0.00 in    
Sea Level Pressure  
Sea Level Pressure 29.71 in    
Wind  
Wind Speed 16 mph (WSW)    
Max Wind Speed 26 mph    
Max Gust Speed 35 mph    
Visibility 8 miles    
Events Rain    
T = Trace of Precipitation, MM = Missing Value Source: NWS Daily Summary

Daily Weather History Graph

Daily Weather History Graph

Search for Another Location

Airport:

Trip Planner

Search our weather history database for the weather conditions in past years. The results will help you decide how hot, cold, wet, or windy it might be!

Date:

Astronomy

Apr. 12, 2013 Rise Set
Actual Time 7:05 AM EDT 8:17 PM EDT
Civil Twilight 6:37 AM EDT 8:45 PM EDT
Nautical Twilight 6:03 AM EDT 9:19 PM EDT
Astronomical Twilight 5:28 AM EDT 9:55 PM EDT
Moon 8:14 AM EDT (4/12) 10:48 PM EDT (4/12)
Length of Visible Light 14h 08m
Length of Day
13h 11m
Waxing Crescent, 5% of the Moon is Illuminated
Apr 12
Waxing Crescent
Apr 18
First Quarter
Apr 25
Full
May 2
Last Quarter
May 9
New

Hourly Weather History & Observations

Time (EDT) Temp. Windchill Dew Point Humidity Pressure Visibility Wind Dir Wind Speed Gust Speed Precip Events Conditions
12:27 AM 41.0 °F 35.8 °F 39.2 °F 93% 29.57 in 2.0 mi ENE 8.1 mph - 0.01 in Rain Light Rain
12:54 AM 41.0 °F 38.0 °F 39.9 °F 96% 29.58 in 2.5 mi ENE 4.6 mph - 0.04 in Rain Light Rain
1:24 AM 41.0 °F 39.0 °F 39.2 °F 93% 29.58 in 2.5 mi NW 3.5 mph - 0.01 in Rain Light Rain
1:54 AM 41.0 °F 39.0 °F 39.9 °F 96% 29.59 in 4.0 mi NW 3.5 mph - 0.04 in Rain Light Rain
2:54 AM 41.0 °F 37.1 °F 39.9 °F 96% 29.60 in 4.0 mi West 5.8 mph - 0.02 in Rain Light Rain
3:54 AM 43.0 °F 35.7 °F 41.0 °F 93% 29.57 in 8.0 mi West 15.0 mph 21.9 mph 0.01 in   Overcast
4:54 AM 42.1 °F 33.1 °F 39.9 °F 92% 29.58 in 2.5 mi West 20.7 mph 27.6 mph 0.00 in   Light Drizzle
5:05 AM 41.0 °F 32.5 °F 39.2 °F 93% 29.58 in 3.0 mi West 17.3 mph - 0.00 in   Light Drizzle
5:40 AM 39.2 °F 29.8 °F 37.4 °F 93% 29.59 in 9.0 mi West 18.4 mph 24.2 mph 0.00 in   Overcast
5:54 AM 39.9 °F 31.1 °F 37.0 °F 89% 29.61 in 9.0 mi West 17.3 mph - 0.00 in   Overcast
6:32 AM 39.2 °F 32.0 °F 37.4 °F 93% 29.60 in 10.0 mi West 11.5 mph - 0.00 in   Overcast
6:54 AM 39.0 °F 31.8 °F 37.0 °F 93% 29.63 in 10.0 mi West 11.5 mph - 0.00 in   Overcast
7:05 AM 39.2 °F 31.2 °F 35.6 °F 87% 29.62 in 10.0 mi WSW 13.8 mph - N/A   Overcast
7:25 AM 39.2 °F 32.0 °F 35.6 °F 87% 29.62 in 10.0 mi West 11.5 mph - N/A   Overcast
7:41 AM 39.2 °F 33.0 °F 35.6 °F 87% 29.63 in 10.0 mi West 9.2 mph - N/A   Overcast
7:54 AM 39.9 °F 31.4 °F 35.1 °F 83% 29.65 in 10.0 mi WSW 16.1 mph 21.9 mph N/A   Overcast
8:54 AM 39.0 °F 29.9 °F 33.1 °F 79% 29.67 in 10.0 mi WSW 17.3 mph - N/A   Overcast
9:54 AM 37.9 °F 28.5 °F 32.0 °F 79% 29.68 in 10.0 mi WSW 17.3 mph 23.0 mph N/A   Overcast
10:54 AM 39.0 °F 29.9 °F 30.9 °F 73% 29.70 in 10.0 mi WSW 17.3 mph - N/A   Overcast
11:54 AM 39.0 °F 29.3 °F 32.0 °F 76% 29.71 in 10.0 mi WSW 19.6 mph 26.5 mph N/A   Overcast
12:54 PM 39.9 °F 30.5 °F 32.0 °F 73% 29.73 in 10.0 mi WSW 19.6 mph - N/A   Overcast
1:54 PM 39.9 °F 32.5 °F 33.1 °F 77% 29.73 in 10.0 mi WSW 12.7 mph - 0.00 in Rain Light Rain
2:54 PM 39.9 °F 31.4 °F 33.1 °F 77% 29.75 in 10.0 mi WSW 16.1 mph - 0.00 in Rain Light Rain
3:54 PM 41.0 °F 32.2 °F 34.0 °F 76% 29.76 in 10.0 mi WSW 18.4 mph 26.5 mph 0.00 in   Overcast
4:54 PM 42.1 °F 34.2 °F 34.0 °F 73% 29.78 in 10.0 mi WSW 16.1 mph 26.5 mph N/A   Overcast
5:54 PM 41.0 °F 32.8 °F 35.1 °F 79% 29.80 in 9.0 mi WSW 16.1 mph 24.2 mph 0.00 in Rain Light Rain
6:38 PM 42.8 °F 35.1 °F 35.6 °F 76% 29.80 in 10.0 mi WSW 16.1 mph - 0.00 in   Mostly Cloudy
6:47 PM 42.8 °F 34.5 °F 35.6 °F 76% 29.80 in 10.0 mi WSW 18.4 mph - 0.00 in   Overcast
6:54 PM 42.1 °F 34.2 °F 36.0 °F 79% 29.82 in 10.0 mi WSW 16.1 mph - 0.00 in   Mostly Cloudy
7:19 PM 39.2 °F 29.6 °F 37.4 °F 93% 29.81 in 6.0 mi WSW 19.6 mph - 0.00 in Rain Light Rain
7:54 PM 41.0 °F 31.6 °F 37.0 °F 86% 29.83 in 10.0 mi WSW 20.7 mph 25.3 mph 0.00 in   Overcast
8:54 PM 39.9 °F 31.8 °F 37.0 °F 89% 29.84 in 10.0 mi WSW 15.0 mph - 0.00 in   Overcast
9:06 PM 39.2 °F 30.5 °F 37.4 °F 93% 29.83 in 10.0 mi WSW 16.1 mph - N/A   Overcast
9:54 PM 41.0 °F 32.8 °F 35.1 °F 79% 29.86 in 10.0 mi WSW 16.1 mph - N/A   Overcast
10:17 PM 41.0 °F 32.8 °F 35.6 °F 81% 29.85 in 10.0 mi WSW 16.1 mph - 0.00 in Rain Light Rain
10:54 PM 39.0 °F 29.3 °F 35.1 °F 86% 29.88 in 9.0 mi West 19.6 mph 25.3 mph 0.00 in Rain Light Rain
11:27 PM 37.4 °F 28.9 °F 35.6 °F 93% 29.87 in 10.0 mi WSW 13.8 mph - 0.01 in   Overcast
11:54 PM 37.9 °F 30.0 °F 35.1 °F 89% 29.88 in 10.0 mi WSW 12.7 mph - 0.01 in   Overcast